Regional Weather Roundup
Issued by NWS

Home | Current Version | Previous Version | Text Only | Print | Product List | Glossary Off
Versions: 1 2 3 4 5 6 7 8 9 10 11 12 13 14 15 16 17 18 19 20 21 22 23 24 25 26 27 28 29 30 31 32 33 34 35 36 37 38 39 40 41 42 43 44 45 46 47 48 49 50

000
ASUS43 KIND 262159
RWRIN

WEATHER ROUNDUP FOR INDIANA
NATIONAL WEATHER SERVICE INDIANAPOLIS IN
600 PM EDT WED APR 26 2017

NOTE: "FAIR" INDICATES FEW OR NO CLOUDS BELOW 12,000 FEET WITH NO
SIGNIFICANT WEATHER AND/OR OBSTRUCTIONS TO VISIBILITY.

* - STATION DOES NOT REPORT WEATHER SUCH AS PRECIPITATION OR FOG.

+ - STATION NOT QUALITY CONTROLLED BY THE NATIONAL WEATHER SERVICE.
    USE DATA WITH CAUTION...ESPECIALLY DEWPOINT AND RELATIVE
    HUMIDITY OBSERVATIONS.

INZ001>003-010>013-019-020-262300-
NORTHWEST INDIANA

CITY           SKY/WX    TMP DP  RH WIND       PRES   REMARKS
GARY /AIRPORT/ PTSUNNY   77  48  36 S12G23    29.49S
KNOX *+        CLOUDY    79  23  12 W17G23    29.49S
MONTICELLO +   CLOUDY    79  54  41 SW17G24   29.50S

$$

LMZ046-743>745-262300-
SOUTHERN LAKE MICHIGAN

STATION/POSITION TIME  TEMP    WIND        PRES    WAVE
                       AIR SEA DIR/SP/G            HT
                 (UTC) (F)     (DEG/KT/KT) (MB)    (FT)
BURNS HARBOR     2140   74     230/ 10/ 20  999.0R
MICHIGAN CITY    2130   70     240/ 17/ 18   N/A
5NW MICH CITY    2150   60 49                N/A     2

$$

INZ004-005-014>016-021>024-262300-
NORTH CENTRAL INDIANA

CITY           SKY/WX    TMP DP  RH WIND       PRES   REMARKS
GOSHEN         PTSUNNY   81  52  36 SW18      29.49S
SOUTH BEND     MOSUNNY   77  55  46 SW14G25   29.50R

$$

INZ006>009-017-018-025>027-262300-
NORTHEAST INDIANA

CITY           SKY/WX    TMP DP  RH WIND       PRES   REMARKS
ANGOLA *+      MOSUNNY   82  77  83 SW13      29.51R
FORT WAYNE     MOSUNNY   81  57  43 SW16G24   29.51S
KENDALLVILLE + MOSUNNY   79  57  47 SW15      29.52S

$$

INZ028-029-035-036-043>045-051>053-262300-
WEST CENTRAL INDIANA

CITY           SKY/WX    TMP DP  RH WIND       PRES   REMARKS
CRAWFORDSVL +  CLOUDY    77  55  47 SW9       29.50F
GREENCASTLE +  PTSUNNY   75  59  57 SE30G37   29.53R
LAFAYETTE      CLOUDY    77  57  50 W10G17    29.49F
TERRE HAUTE    TSTM      74  61  63 S9        29.48F

$$

INZ030>032-037>040-046>048-054>057-064-065-262300-
CENTRAL INDIANA

CITY           SKY/WX    TMP DP  RH WIND       PRES   REMARKS
COLUMBUS       PTSUNNY   81  55  41 S16       29.53F
INDIANAPOLIS   PTSUNNY   79  59  50 S9        29.50F
-EAGLE CREEK   MOSUNNY   81  57  43 SW8       29.50F
KOKOMO +       PTSUNNY   81  57  43 SW17      29.52F
SHELBYVILLE    MOSUNNY   84  60  44 S21G28    29.52F

$$

INZ033-034-041-042-049-050-058-059-262300-
EAST CENTRAL INDIANA

CITY           SKY/WX    TMP DP  RH WIND       PRES   REMARKS
MUNCIE         MOSUNNY   84  57  39 SW14G23   29.52F
RICHMOND +     MOSUNNY   81  55  41 SW18      29.59S

$$

INZ060-061-067>069-081>083-085>088-262300-
SOUTHWEST INDIANA

CITY           SKY/WX    TMP DP  RH WIND       PRES   REMARKS
EVANSVILLE     MOSUNNY   83  59  44 S13G25    29.51F
HUNTINGBURG *+ CLOUDY    81  60  48 S21G28    29.53F

$$

INZ062-063-066-070>080-084-089>092-262300-
SOUTH CENTRAL AND SOUTHEAST INDIANA

CITY           SKY/WX    TMP DP  RH WIND       PRES   REMARKS
BLOOMINGTON    CLOUDY    82  60  47 S17G23    29.51F
MADISON *+     SUNNY     82  50  32 S15G24    29.59F
SEYMOUR +      MOSUNNY   84  59  42 S16G24    29.53F

$$





USA.gov is the U.S. government's official web portal to all federal, state and local government web resources and services.